Location: Bambrugge
(50.9212°N, 3.9299°E)
Time: 19:59:45
(UTC+00:00)

USA 267 - Pass Details

Date: 23 May 2024
Orbit: 1100 x 1107 km, 123.0° (Epoch: 21 May)

Event Time Altitude Azimuth Distance (km) Brightness Sun altitude
Rises 01:58:46 0° 67° (ENE) 3,921 7.2 -12.3°
Reaches altitude 10° 02:01:17 10° 64° (ENE) 2,963 6.5 -12.1°
Maximum altitude 02:07:40 59° 347° (NNW) 1,265 3.8 -11.5°
Drops below altitude 10° 02:14:02 10° 271° (W) 2,959 5.2 -10.9°
Sets 02:16:33 0° 267° (W) 3,916 5.8 -10.7°
